Regional Weather Roundup
Issued by NWS

Home | Current Version | Previous Version | Graphics & Text | Print | Product List | Glossary On
Versions: 1 2 3 4 5 6 7 8 9 10 11 12 13 14 15 16 17 18 19 20 21 22 23 24 25 26 27 28 29 30 31 32 33 34 35 36 37 38 39 40 41 42 43 44 45 46 47 48 49 50
000
ASUS43 KLSX 271759
RWRMO

WEATHER SUMMARY FOR MISSOURI
NATIONAL WEATHER SERVICE SPRINGFIELD MO
1200 PM CST TUE JAN 27 2015

NOTE: "FAIR" INDICATES FEW OR NO CLOUDS BELOW 12,000 FEET WITH NO
       SIGNIFICANT WEATHER AND/OR OBSTRUCTIONS TO VISIBILITY.
       CURRENT SKY AND/OR WEATHER CONDITIONS ARE NOT AVAILABLE FOR
       CHILLICOTHE AND FARMINGTON.

MOZ001>031-035>038-043-044-053-054-271900-
...NORTHERN AND WESTERN MISSOURI...

CITY           SKY/WX    TMP DP  RH WIND       PRES   REMARKS
KANSAS CTY INT MOSUNNY   49  34  56 E7        30.16F
6HR MIN TEMP:  30; 6HR MAX TEMP:  49;

KANSAS C DTWN  SUNNY     49  33  54 CALM      30.17F
6HR MIN TEMP:  30; 6HR MAX TEMP:  50;

LEE`S SUMMIT   SUNNY     48  32  53 SE5       30.18S
6HR MIN TEMP:  35; 6HR MAX TEMP:  49;

ST JOSEPH      SUNNY     47  34  60 SE7       30.17F
6HR MIN TEMP:  21; 6HR MAX TEMP:  47;

CHILLICOTHE      N/A     46  33  60 VRB3      30.18F
6HR MIN TEMP:  28; 6HR MAX TEMP:  46;

KIRKSVILLE     SUNNY     38  32  79 CALM      30.18S
6HR MIN TEMP:  28; 6HR MAX TEMP:  39;


$$
MOZ066>068-077>081-088>096-101>105-271900-
...SOUTHWEST MISSOURI...

CITY           SKY/WX    TMP DP  RH WIND       PRES   REMARKS
SPRINGFIELD    SUNNY     52  33  48 VRB3      30.15F
6HR MIN TEMP:  29; 6HR MAX TEMP:  52;

JOPLIN         SUNNY     54  33  45 VRB5      30.17F
6HR MIN TEMP:  33; 6HR MAX TEMP:  55;


$$
MOZ032>034-039>042-045>050-055>058-069>072-271900-
...CENTRAL MISSOURI...

CITY           SKY/WX    TMP DP  RH WIND       PRES   REMARKS
COLUMBIA       MOSUNNY   45  35  68 CALM      30.17F
6HR MIN TEMP:  32; 6HR MAX TEMP:  45;

JEFFERSON CITY SUNNY     46  33  60 NW6       30.18F
6HR MIN TEMP:  28; 6HR MAX TEMP:  46;

ROLLA          SUNNY     45  33  63 VRB5      30.14F
6HR MIN TEMP:  33; 6HR MAX TEMP:  45;

SEDALIA        SUNNY     47  32  56 VRB5      30.18F
6HR MIN TEMP:  34; 6HR MAX TEMP:  47;

WHITEMAN AFB   SUNNY     47  34  61 E3        30.17F
OSAGE BEACH    SUNNY     46  32  57 NE6       30.17F

$$
MOZ051-052-059>065-271900-
...EAST CENTRAL MISSOURI...

CITY           SKY/WX    TMP DP  RH WIND       PRES   REMARKS
ST LOUIS INTL  PTSUNNY   43  32  65 N12       30.16F
6HR MIN TEMP:  33; 6HR MAX TEMP:  44;

SPIRIT OF STL  MOSUNNY   44  30  57 N8        30.16F
6HR MIN TEMP:  32; 6HR MAX TEMP:  46;

ST CHARLES     CLOUDY    44  33  65 NE14      30.16F
6HR MIN TEMP:  33; 6HR MAX TEMP:  44;


$$
MOZ072>076-082>087-097>100-106>115-271900-
...SOUTH CENTRAL AND SOUTHEAST MISSOURI...

CITY           SKY/WX    TMP DP  RH WIND       PRES   REMARKS
CAPE GIRARDEAU CLOUDY    44  33  65 N9        30.15F
6HR MIN TEMP:  31; 6HR MAX TEMP:  45;

FARMINGTON     PTSUNNY   45  30  57 MISG      30.17F
6HR MIN TEMP:  37; 6HR MAX TEMP:  45;

POPLAR BLUFF   PTSUNNY   47  34  60 N9        30.14F
6HR MIN TEMP:  34; 6HR MAX TEMP:  49;

WEST PLAINS    SUNNY     51  32  48 VRB6      30.14F
6HR MIN TEMP:  37; 6HR MAX TEMP:  51;


$$



USA.gov is the U.S. government's official web portal to all federal, state and local government web resources and services.